Flag for Switzerland Weather past 2 weeks in Sion, Valais, Switzerland

Now
69 °F

Overcast.


Feels Like: 69 °F
Forecast: 58 / 81 °F
Wind: 6 mph from Southwest

Location: Sion

Current Time: Jul 24, 2014 at 3:45:46 PM

Latest Report: Jul 24, 2014 at 2:00 PM


Visibility: 13 mi

Pressure: 29.88 "Hg

Humidity: 77%

Dew point: 61 °F

Location of SionLocation

Historic Weather in Sion — Graph

°F

Sion temperature yesterday

Maximum temperature yesterday: 81 °F (at 3:00 PM)
Minimum temperature yesterday: 64 °F (at 4:00 AM)
Average temperature yesterday: 71 °F

Past Weeks' High & Low Weather Summary

 TemperatureHumidityPressure
High92 °F (Jul 18, 4:00 PM)98% (Jul 21, 6:00 AM)30.20 "Hg (Jul 21, 6:00 AM)
Low50 °F (Jul 10, 7:00 AM)26% (Jul 18, 4:00 PM)29.74 "Hg (Jul 23, 3:00 PM)
Average67 °F71%29.95 "Hg
* Reported Jul 9 3:00 PM — Jul 24 2:00 PM, Sion, Weather by CustomWeather, © 2014

Note: Actual official high and low records may vary slightly from our data, if they occured in-between our weather recording intervals... More about our weather records

Advertising

Sion weather history for previous 24 hours

 ConditionsComfort  
Time TempWeatherWind HumidityBarometerVisibility
2:00 PM
Jul 24
69 °FOvercast.6 mph77%29.88 "Hg12 mi
1:00 PM72 °FMild.5 mph58%29.86 "HgN/A
12:00 PM72 °FMild.2 mph64%29.85 "HgN/A
11:00 AM69 °FOvercast.1 mph77%29.86 "Hg16 mi
10:00 AM67 °FMild.2 mph81%29.87 "HgN/A
9:00 AM65 °FMild.2 mph87%29.88 "HgN/A
8:00 AM64 °FOvercast.2 mph93%29.90 "Hg16 mi
7:00 AM62 °FCool.2 mph94%29.90 "HgN/A
6:00 AM62 °FMild.1 mph96%29.90 "HgN/A
5:00 AM62 °FCool.1 mph96%29.92 "HgN/A
4:00 AM63 °FMild.3 mph93%29.90 "HgN/A
3:00 AM65 °FMild.2 mph88%29.89 "HgN/A
2:00 AM66 °FLight rain. Overcast.7 mph91%29.85 "Hg9 mi
1:00 AM68 °FMild.1 mph91%29.85 "HgN/A
12:00 AM69 °FMild.2 mph81%29.84 "HgN/A
11:00 PM
Jul 23
72 °FPassing clouds.1 mph71%29.83 "Hg12 mi
10:00 PM73 °FMild.2 mph68%29.82 "HgN/A
9:00 PM74 °FMild.12 mph64%29.79 "HgN/A
8:00 PM74 °FOvercast.12 mph65%29.78 "Hg12 mi
7:00 PM76 °FMild.15 mph59%29.77 "HgN/A
6:00 PM76 °FMild.10 mph60%29.76 "HgN/A
5:00 PM77 °FOvercast.13 mph58%29.76 "Hg12 mi
4:00 PM79 °FWarm.14 mph55%29.75 "HgN/A
3:00 PM81 °FWarm.16 mph49%29.74 "HgN/A
Weather by CustomWeather, © 2014

See weather overviewHow to use our weather pages